This is the latest recevied weather packets stored in our database for station/object DG6HD-13. If no packets are shown the sender has not sent any weather packets the latest 10 day(s).
| Time | Temp. | Humidity | Pressure | Rain* | Wind** | Luminosity | Snow |
|---|---|---|---|---|---|---|---|
| 1778035456 | 7.22° C | 54% | 1009.1 hPa | - | - | - | - |
| 1778034555 | 7.22° C | 54% | 1009.3 hPa | - | - | - | - |
| 1778033655 | 7.22° C | 54% | 1009.2 hPa | - | - | - | - |
| 1778032754 | 7.22° C | 53% | 1009.2 hPa | - | - | - | - |
| 1778031853 | 7.22° C | 54% | 1009.2 hPa | - | - | - | - |
| 1778030952 | 8.33° C | 52% | 1009.2 hPa | - | - | - | - |
| 1778030051 | 7.22° C | 55% | 1009.5 hPa | - | - | - | - |
| 1778029150 | 7.22° C | 55% | 1009.6 hPa | - | - | - | - |
| 1778028250 | 7.78° C | 54% | 1009.6 hPa | - | - | - | - |
| 1778027349 | 7.78° C | 54% | 1009.6 hPa | - | - | - | - |
| 1778026448 | 7.78° C | 54% | 1009.7 hPa | - | - | - | - |
| 1778025547 | 8.33° C | 54% | 1009.9 hPa | - | - | - | - |
| 1778024646 | 7.78° C | 55% | 1010.1 hPa | - | - | - | - |
| 1778023745 | 8.33° C | 55% | 1010.1 hPa | - | - | - | - |
| 1778022845 | 8.33° C | 55% | 1010.2 hPa | - | - | - | - |
| 1778021944 | 8.33° C | 55% | 1010.4 hPa | - | - | - | - |
| 1778021043 | 8.33° C | 55% | 1010.4 hPa | - | - | - | - |
| 1778020142 | 8.89° C | 55% | 1010.6 hPa | - | - | - | - |
| 1778019241 | 8.89° C | 55% | 1010.7 hPa | - | - | - | - |
| 1778018341 | 8.89° C | 56% | 1010.8 hPa | - | - | - | - |
| 1778017440 | 9.44° C | 56% | 1010.6 hPa | - | - | - | - |
| 1778016539 | 9.44° C | 56% | 1010.9 hPa | - | - | - | - |
| 1778015638 | 9.44° C | 56% | 1010.8 hPa | - | - | - | - |
| 1778014737 | 9.44° C | 57% | 1010.9 hPa | - | - | - | - |
| 1778013836 | 10° C | 56% | 1010.9 hPa | - | - | - | - |
* Rain since midnight (hover to see other rain measurements)
** Current wind speed in m/s (hover to see current wind gust speed)